FW7384 Weather Reports


Display with metric or nautical units.
time (UTC)temp
F
wind
direction
speed
MPH
gust
MPH
rain 1hr
in
rain 24hr
in
rain mn
in
humidity
%
barometer
mb
20260906004003 46 201 0.0 2.0 0.00 0.06 0.00 98 1012.4
20260906003503 45 193 0.0 2.0 0.00 0.06 0.00 99 1012.3
20260906003003 44 211 0.0 2.0 0.00 0.06 0.00 99 1012.3
20260906002503 44 225 0.0 1.0 0.00 0.08 0.00 99 1012.2
20260906002003 44 227 0.0 1.0 0.00 0.09 0.00 99 1012.2
20260906001503 44 293 0.0 1.0 0.00 0.13 0.00 99 1012.2
20260906001003 44 215 0.0 1.0 0.00 0.14 0.00 99 1012.1
20260906000504 44 173 0.0 1.0 0.00 0.16 0.00 99 1011.8
20260906000003 44 163 0.0 1.0 0.00 0.18 0.00 99 1011.9
20260905235503 44 0 0.0 0.0 0.00 0.18 0.00 99 1011.8
20260905235003 43 0 0.0 0.0 0.00 0.18 0.00 99 1011.8
20260905234504 43 252 0.0 1.0 0.00 0.18 0.00 99 1011.6
20260905234003 43 334 0.0 1.0 0.00 0.18 0.00 99 1011.5
20260905233503 43 17 0.0 1.0 0.00 0.18 0.00 99 1011.4
20260905233214 43 248 0.0 1.0 0.00 0.18 0.00 99 1011.5
20260905232713 44 199 0.0 1.0 0.00 0.18 0.00 99 1011.3
20260905232214 43 159 0.0 1.0 0.00 0.18 0.00 99 1011.3
20260905231503 43 30 1.0 3.0 0.00 0.18 0.00 99 1011.0
20260905231003 44 12 1.0 3.0 0.00 0.18 0.00 99 1011.0
20260905230715 44 297 0.0 2.0 0.00 0.18 0.00 99 1011.0
20260905230213 44 176 0.0 2.0 0.00 0.19 0.00 99 1010.7
20260905225503 44 54 0.0 2.0 0.00 0.19 0.00 99 1010.8
20260905225003 44 10 0.0 2.0 0.00 0.19 0.00 99 1010.7
20260905224712 44 9 0.0 2.0 0.00 0.19 0.00 99 1010.8
20260905224003 45 0 0.0 1.0 0.00 0.19 0.00 99 1010.7
20260905223714 45 37 0.0 1.0 0.00 0.19 0.00 99 1010.3
20260905223213 45 103 0.0 2.0 0.00 0.19 0.00 99 1010.3
20260905222503 45 131 0.0 2.0 0.00 0.19 0.00 99 1010.2
20260905222003 45 248 0.0 1.0 0.00 0.19 0.00 99 1010.3
20260905221503 45 146 0.0 1.0 0.00 0.19 0.00 99 1010.2
20260905221003 46 188 0.0 2.0 0.00 0.19 0.00 99 1010.1
20260905220503 46 202 0.0 2.0 0.00 0.19 0.00 99 1010.1
20260905220213 46 274 0.0 5.0 0.00 0.19 0.00 99 1010.1
20260905215714 46 290 1.0 5.0 0.00 0.19 0.19 99 1009.8
20260905215003 46 73 0.0 2.0 0.00 0.19 0.19 99 1009.8
20260905214714 46 119 0.0 2.0 0.00 0.19 0.19 99 1009.7
20260905214003 46 208 0.0 2.0 0.00 0.19 0.19 99 1009.7
20260905213503 46 207 0.0 2.0 0.00 0.19 0.19 99 1009.7
20260905213003 46 0 0.0 0.0 0.00 0.19 0.19 99 1009.5
20260905212503 47 0 0.0 0.0 0.00 0.19 0.19 99 1009.4
20260905212003 47 255 0.0 1.0 0.00 0.19 0.19 99 1009.2
20260905211714 47 242 0.0 1.0 0.00 0.19 0.19 99 1009.3
20260905211003 47 163 0.0 1.0 0.00 0.19 0.19 98 1009.1
20260905210503 47 103 0.0 1.0 0.00 0.19 0.19 98 1008.9
20260905210004 47 282 0.0 2.0 0.00 0.19 0.19 98 1008.7
20260905205714 47 228 0.0 2.0 0.00 0.19 0.19 98 1008.7
20260905205003 47 215 0.0 2.0 0.00 0.20 0.19 98 1008.9
20260905204714 48 219 0.0 2.0 0.00 0.20 0.19 98 1008.7
20260905204003 47 217 0.0 1.0 0.00 0.21 0.19 98 1008.5
20260905203503 47 0 0.0 0.0 0.00 0.21 0.19 98 1008.4
20260905203003 47 0 0.0 0.0 0.00 0.21 0.19 98 1008.3
20260905202714 47 0 0.0 0.0 0.00 0.21 0.19 98 1008.1
20260905202004 48 0 0.0 1.0 0.00 0.21 0.19 97 1008.1
20260905201503 48 209 0.0 1.0 0.00 0.21 0.19 97 1007.9
20260905201003 48 214 0.0 1.0 0.00 0.21 0.19 97 1007.8
20260905200503 48 214 0.0 1.0 0.00 0.21 0.19 97 1007.6
20260905200004 49 209 0.0 1.0 0.00 0.21 0.19 97 1007.7
20260905195503 49 208 0.0 2.0 0.00 0.21 0.19 97 1007.5
20260905195214 49 244 0.0 2.0 0.00 0.21 0.19 97 1007.7
20260905194713 49 257 0.0 2.0 0.00 0.21 0.19 97 1007.4
20260905194003 49 158 0.0 1.0 0.00 0.21 0.19 97 1007.5
20260905193713 49 158 0.0 1.0 0.00 0.21 0.19 96 1007.4
20260905193004 49 0 0.0 0.0 0.00 0.21 0.19 96 1007.2
20260905192503 50 217 0.0 1.0 0.00 0.21 0.19 96 1007.3
20260905192214 50 217 0.0 1.0 0.00 0.21 0.19 96 1007.0
20260905191504 50 0 0.0 0.0 0.00 0.21 0.19 96 1006.9
20260905190503 51 0 0.0 0.0 0.00 0.21 0.19 95 1006.7
20260905190004 51 62 0.0 1.0 0.00 0.21 0.19 95 1006.6
20260905185713 51 338 0.0 2.0 0.00 0.21 0.19 95 1006.5
20260905185214 51 279 0.0 2.0 0.00 0.21 0.19 95 1006.6
20260905184713 52 250 0.0 2.0 0.00 0.21 0.19 95 1006.5
20260905184214 52 226 0.0 2.0 0.00 0.21 0.19 95 1006.3
20260905183503 52 138 0.0 2.0 0.00 0.21 0.19 95 1006.4
20260905183004 52 112 0.0 2.0 0.00 0.21 0.19 95 1006.4
20260905182713 52 164 0.0 2.0 0.00 0.21 0.19 95 1006.2
20260905182003 52 225 1.0 3.0 0.00 0.21 0.19 94 1006.2
20260905181504 52 214 1.0 4.0 0.00 0.21 0.19 94 1006.3
20260905181003 52 222 1.0 4.0 0.00 0.21 0.19 93 1005.7
20260905180503 53 221 2.0 5.0 0.00 0.21 0.19 93 1006.0
20260905180004 53 226 1.0 5.0 0.00 0.21 0.19 93 1005.8
20260905175713 53 217 1.0 5.0 0.00 0.21 0.19 93 1005.7
20260905175003 53 221 1.0 4.0 0.00 0.21 0.19 93 1005.7
20260905174503 53 211 1.0 4.0 0.00 0.21 0.19 93 1005.7
20260905174003 53 209 1.0 4.0 0.00 0.21 0.19 94 1005.4
20260905173503 53 213 1.0 4.0 0.00 0.21 0.19 94 1005.4
20260905173003 53 214 1.0 4.0 0.00 0.21 0.19 94 1005.7
20260905172503 53 216 1.0 4.0 0.00 0.21 0.19 94 1005.3
20260905172003 54 214 1.0 3.0 0.00 0.21 0.19 94 1005.3
20260905171714 54 217 1.0 3.0 0.00 0.21 0.19 94 1005.3
20260905171003 54 217 1.0 3.0 0.00 0.21 0.19 93 1005.2
20260905170714 54 217 1.0 3.0 0.00 0.21 0.19 94 1005.0
20260905170003 54 209 2.0 4.0 0.00 0.21 0.19 93 1005.0
20260905165503 54 205 1.0 4.0 0.00 0.21 0.19 93 1005.1
20260905165003 54 203 1.0 3.0 0.00 0.21 0.19 93 1005.0
20260905164504 54 223 1.0 3.0 0.00 0.21 0.19 93 1004.9
20260905164213 54 222 1.0 3.0 0.00 0.21 0.19 92 1004.9
20260905163503 54 209 2.0 6.0 0.00 0.21 0.19 92 1004.7
20260905163003 54 207 3.0 6.0 0.00 0.21 0.19 91 1004.7
20260905162714 54 205 2.0 7.0 0.00 0.21 0.19 91 1004.6
20260905162004 54 207 3.0 7.0 0.00 0.21 0.19 92 1004.8
20260905161503 54 218 2.0 6.0 0.01 0.21 0.19 92 1004.7
20260905161213 54 223 2.0 6.0 0.01 0.21 0.19 91 1004.7
20260905160503 55 242 1.0 3.0 0.01 0.21 0.19 92 1004.5
20260905160003 54 227 1.0 4.0 0.01 0.21 0.19 92 1004.4
20260905155714 54 263 1.0 4.0 0.01 0.21 0.19 92 1004.5
20260905155215 54 294 2.0 4.0 0.01 0.21 0.19 91 1004.5
20260905154503 55 325 1.0 4.0 0.01 0.21 0.19 92 1004.3
20260905154213 54 197 1.0 5.0 0.01 0.21 0.19 92 1004.1
20260905153503 55 288 2.0 6.0 0.02 0.21 0.19 91 1004.2
20260905153003 55 276 2.0 6.0 0.02 0.21 0.19 91 1004.1
20260905152714 55 268 2.0 5.0 0.02 0.21 0.19 92 1004.2
20260905152003 54 284 2.0 5.0 0.02 0.21 0.19 91 1004.3
20260905151714 55 269 2.0 6.0 0.02 0.20 0.19 91 1004.0
20260905151003 56 272 2.0 8.0 0.01 0.20 0.18 90 1004.2
20260905150714 56 291 2.0 8.0 0.01 0.20 0.18 89 1004.2
20260905150004 56 263 2.0 7.0 0.01 0.19 0.18 90 1004.0
20260905145503 55 263 2.0 6.0 0.01 0.19 0.18 90 1003.9
20260905145214 55 262 2.0 6.0 0.01 0.19 0.18 89 1003.9
20260905144504 56 289 2.0 5.0 0.01 0.19 0.18 89 1004.0
20260905144212 56 291 2.0 8.0 0.01 0.19 0.18 88 1004.0
20260905143503 58 264 2.0 8.0 0.00 0.19 0.17 84 1004.0
20260905143003 59 246 2.0 11.0 0.00 0.18 0.17 83 1003.7
20260905142503 59 228 3.0 11.0 0.00 0.18 0.17 81 1003.7
20260905142003 59 229 3.0 11.0 0.00 0.18 0.17 80 1003.8
20260905141503 58 235 3.0 6.0 0.00 0.18 0.17 84 1003.6
20260905141003 58 206 3.0 7.0 0.00 0.18 0.17 84 1003.8
20260905140713 58 208 3.0 9.0 0.00 0.18 0.17 83 1003.7
20260905140214 58 215 3.0 9.0 0.00 0.18 0.17 85 1003.6
20260905135713 59 215 3.0 8.0 0.00 0.18 0.17 83 1003.6
20260905135003 57 236 3.0 7.0 0.00 0.18 0.17 85 1003.5
20260905134503 57 229 3.0 9.0 0.00 0.18 0.17 86 1003.7
20260905134003 59 216 4.0 12.0 0.00 0.18 0.17 83 1003.7
20260905133715 59 228 4.0 12.0 0.00 0.18 0.17 80 1003.6
20260905133003 60 217 5.0 13.0 0.00 0.18 0.17 75 1003.7
20260905132503 60 214 5.0 13.0 0.00 0.18 0.17 78 1003.5
20260905132214 59 210 5.0 13.0 0.00 0.18 0.17 80 1003.4
20260905131503 58 212 4.0 12.0 0.00 0.18 0.17 81 1003.4
20260905131003 59 206 3.0 11.0 0.00 0.18 0.17 80 1003.4
20260905130504 59 218 3.0 8.0 0.00 0.18 0.17 78 1003.2
20260905130004 59 242 3.0 6.0 0.00 0.18 0.17 80 1003.1
20260905125503 58 245 3.0 5.0 0.00 0.18 0.17 83 1003.3
20260905125003 57 241 2.0 5.0 0.00 0.18 0.17 86 1003.2
20260905124503 55 224 2.0 5.0 0.00 0.18 0.17 86 1003.2
20260905124004 56 228 2.0 7.0 0.00 0.18 0.17 86 1003.3
20260905123713 56 222 2.0 7.0 0.00 0.18 0.17 85 1003.1
20260905123003 58 232 3.0 11.0 0.00 0.18 0.17 84 1003.1
20260905122503 58 226 4.0 11.0 0.00 0.18 0.17 84 1002.9
20260905122003 60 215 4.0 11.0 0.00 0.18 0.17 80 1002.8
20260905121712 60 216 4.0 7.0 0.00 0.18 0.17 78 1002.8
20260905121003 60 222 4.0 11.0 0.00 0.18 0.17 77 1002.8
20260905120503 59 215 4.0 11.0 0.00 0.18 0.17 78 1002.7
20260905120004 58 198 2.0 6.0 0.00 0.18 0.17 82 1002.8
20260905115503 56 221 3.0 5.0 0.00 0.18 0.17 84 1002.8
20260905115003 58 225 3.0 9.0 0.00 0.18 0.17 81 1003.0
20260905114714 59 223 4.0 9.0 0.00 0.18 0.17 80 1002.8
20260905114003 58 245 3.0 9.0 0.00 0.18 0.17 80 1002.8
20260905113503 57 253 2.0 6.0 0.00 0.18 0.17 84 1002.8
20260905113213 56 229 3.0 7.0 0.00 0.18 0.17 83 1002.8
20260905112503 57 201 4.0 9.0 0.00 0.18 0.17 82 1002.7
20260905112213 58 188 3.0 9.0 0.00 0.18 0.17 81 1002.9
20260905111503 59 190 3.0 9.0 0.00 0.18 0.17 80 1002.7
20260905111003 59 200 3.0 10.0 0.00 0.18 0.17 79 1002.6
20260905110503 60 208 4.0 12.0 0.00 0.18 0.17 78 1002.5
20260905110003 60 209 4.0 12.0 0.00 0.18 0.17 77 1002.3
20260905105503 59 224 4.0 11.0 0.00 0.18 0.17 78 1002.4
20260905105003 60 239 3.0 11.0 0.00 0.18 0.17 78 1002.5
20260905104503 60 259 3.0 8.0 0.00 0.18 0.17 79 1002.3
20260905104213 60 240 4.0 8.0 0.00 0.18 0.17 78 1002.5
20260905103503 59 221 5.0 14.0 0.00 0.18 0.17 80 1002.3
20260905103213 58 221 5.0 14.0 0.00 0.18 0.17 80 1002.1
20260905102503 59 221 4.0 10.0 0.00 0.18 0.17 79 1002.1
20260905102003 59 221 4.0 10.0 0.00 0.18 0.17 79 1002.3
20260905101503 59 209 4.0 10.0 0.00 0.18 0.17 80 1002.1
20260905101003 58 196 4.0 10.0 0.00 0.18 0.17 82 1002.2
20260905100503 57 204 3.0 10.0 0.00 0.18 0.17 84 1002.2
20260905100213 57 203 3.0 10.0 0.00 0.18 0.17 85 1002.1
20260905095503 55 212 3.0 8.0 0.00 0.18 0.17 87 1002.2
20260905095213 57 225 3.0 8.0 0.00 0.18 0.17 85 1002.0
20260905094503 58 242 3.0 7.0 0.00 0.18 0.17 83 1001.9
20260905094212 59 233 3.0 7.0 0.00 0.18 0.17 81 1001.8
20260905093713 59 232 3.0 10.0 0.00 0.18 0.17 81 1001.9
20260905093003 57 217 3.0 12.0 0.00 0.18 0.17 83 1001.6
20260905092504 58 239 4.0 12.0 0.00 0.18 0.17 83 1001.7
20260905092003 59 273 4.0 12.0 0.00 0.18 0.17 82 1001.6
20260905091503 58 221 3.0 9.0 0.00 0.18 0.17 84 1001.4
20260905091003 58 210 3.0 10.0 0.00 0.18 0.17 83 1001.5
20260905090503 59 229 3.0 10.0 0.00 0.18 0.17 84 1001.6
20260905090003 56 230 3.0 11.0 0.00 0.18 0.17 88 1001.6
20260905085503 56 221 4.0 11.0 0.00 0.18 0.17 88 1001.5
20260905085003 57 232 4.0 10.0 0.00 0.18 0.17 86 1001.4
20260905084713 58 233 5.0 10.0 0.00 0.18 0.17 84 1001.5
20260905084214 57 212 4.0 8.0 0.00 0.18 0.17 87 1001.4
20260905083503 57 208 3.0 9.0 0.00 0.18 0.17 88 1001.4
20260905083003 57 218 3.0 9.0 0.00 0.18 0.17 88 1001.4
20260905082504 56 204 3.0 8.0 0.00 0.18 0.17 92 1001.3
20260905082214 55 208 3.0 9.0 0.00 0.18 0.17 91 1001.3
20260905081503 56 222 3.0 9.0 0.00 0.18 0.17 91 1001.3
20260905081003 57 217 2.0 5.0 0.00 0.18 0.17 91 1001.0
20260905080503 57 216 3.0 6.0 0.01 0.19 0.17 90 1001.1
20260905080003 55 231 3.0 6.0 0.01 0.19 0.17 93 1001.0
20260905075715 55 237 3.0 6.0 0.01 0.19 0.17 93 1001.0
20260905075214 55 218 3.0 10.0 0.01 0.19 0.17 94 1001.0
20260905074503 56 221 2.0 10.0 0.02 0.19 0.17 94 1000.9
20260905074003 54 236 2.0 10.0 0.02 0.20 0.17 95 1001.0
20260905073503 55 247 3.0 6.0 0.02 0.20 0.17 96 1000.9
20260905073214 55 260 2.0 6.0 0.03 0.20 0.17 97 1000.8
20260905072503 54 231 2.0 5.0 0.03 0.20 0.17 98 1001.0
20260905072003 54 225 3.0 6.0 0.03 0.21 0.17 98 1000.9
20260905071504 54 219 3.0 6.0 0.03 0.21 0.17 98 1000.9
20260905071003 53 211 2.0 7.0 0.03 0.21 0.17 98 1000.7
20260905070504 54 185 2.0 7.0 0.03 0.21 0.16 98 1000.7
20260905070003 54 194 3.0 7.0 0.02 0.20 0.16 99 1000.4
20260905065503 53 213 3.0 7.0 0.02 0.20 0.16 99 1000.8
20260905065213 54 228 2.0 7.0 0.02 0.20 0.16 99 1000.7
20260905064503 54 176 2.0 5.0 0.01 0.20 0.15 99 1000.7
20260905064213 54 173 2.0 5.0 0.01 0.19 0.15 99 1000.8
20260905063503 53 217 2.0 6.0 0.01 0.19 0.14 99 1000.6
20260905063213 53 234 2.0 6.0 0.00 0.19 0.14 99 1000.4
20260905062714 53 217 2.0 5.0 0.00 0.19 0.14 99 1000.6
20260905062213 53 195 3.0 5.0 0.00 0.18 0.14 99 1000.6
20260905061714 53 211 2.0 5.0 0.00 0.18 0.14 99 1000.3
20260905061003 53 209 2.0 5.0 0.00 0.18 0.14 99 1000.3
20260905060714 53 201 2.0 4.0 0.00 0.18 0.14 99 1000.1
20260905060003 53 207 1.0 4.0 0.00 0.18 0.14 99 1000.2
20260905055503 53 229 1.0 5.0 0.00 0.18 0.14 99 1000.2
20260905055213 52 261 2.0 5.0 0.00 0.18 0.14 99 1000.0
20260905054503 52 251 2.0 5.0 0.00 0.18 0.14 99 999.9
20260905054003 53 212 2.0 5.0 0.00 0.18 0.14 99 1000.0
20260905053714 53 216 2.0 5.0 0.00 0.18 0.14 99 1000.0
20260905053003 53 251 2.0 5.0 0.00 0.18 0.14 99 1000.0
20260905052503 53 223 2.0 5.0 0.00 0.18 0.13 99 999.8
20260905052004 52 227 2.0 5.0 0.00 0.18 0.13 99 999.8
20260905051503 52 205 3.0 5.0 0.00 0.18 0.13 99 999.8
20260905051213 52 192 3.0 5.0 0.00 0.18 0.13 99 999.7
20260905050504 52 193 2.0 5.0 0.00 0.18 0.13 99 999.9
20260905050213 52 194 2.0 5.0 0.00 0.18 0.13 99 999.7
20260905045503 52 201 2.0 5.0 0.00 0.19 0.13 99 999.7
20260905045003 52 214 1.0 4.0 0.00 0.19 0.13 99 999.6
20260905044504 52 226 2.0 5.0 0.00 0.19 0.13 99 999.6
20260905044003 52 212 2.0 5.0 0.00 0.19 0.13 99 999.7
20260905043504 52 234 2.0 4.0 0.00 0.20 0.13 99 999.5
20260905043213 52 262 1.0 4.0 0.00 0.20 0.13 99 999.3
20260905042503 52 264 1.0 4.0 0.00 0.20 0.13 99 999.3
20260905042003 52 248 2.0 5.0 0.00 0.20 0.13 99 999.5
20260905041503 52 228 2.0 5.0 0.00 0.20 0.13 99 999.4
20260905041003 52 223 2.0 5.0 0.00 0.20 0.13 99 999.3
20260905040503 52 212 2.0 6.0 0.00 0.19 0.13 99 999.2
20260905040004 52 214 2.0 6.0 0.00 0.19 0.13 99 999.2
20260905035504 52 201 2.0 4.0 0.00 0.19 0.13 99 999.3
20260905035003 52 185 2.0 4.0 0.00 0.19 0.13 99 999.1
20260905034713 52 209 2.0 4.0 0.00 0.19 0.13 99 999.2
20260905034003 52 258 1.0 5.0 0.00 0.19 0.13 99 999.0
20260905033504 52 241 1.0 5.0 0.00 0.19 0.13 99 998.9
20260905033003 52 208 2.0 5.0 0.00 0.19 0.13 99 999.0
20260905032503 52 213 2.0 4.0 0.00 0.19 0.13 99 999.0
20260905032003 52 218 2.0 6.0 0.00 0.19 0.13 99 999.0
20260905031503 52 217 2.0 6.0 0.00 0.19 0.13 99 998.9
20260905031003 52 217 2.0 6.0 0.00 0.19 0.13 99 998.8
20260905030713 52 202 3.0 6.0 0.00 0.19 0.13 99 998.8
20260905030214 52 203 3.0 6.0 0.00 0.19 0.13 99 998.8
20260905025504 52 218 2.0 4.0 0.00 0.19 0.13 99 998.7
20260905025214 52 212 1.0 4.0 0.00 0.19 0.13 99 998.6
20260905024503 52 203 1.0 4.0 0.00 0.19 0.13 99 998.6
20260905024003 52 219 1.0 4.0 0.00 0.19 0.13 99 998.6
20260905023503 52 216 1.0 5.0 0.00 0.19 0.13 99 998.5
20260905023003 52 207 1.0 5.0 0.00 0.19 0.13 99 998.6
20260905022503 52 214 1.0 4.0 0.00 0.19 0.13 99 998.6
20260905022214 52 217 1.0 4.0 0.00 0.19 0.13 99 998.5
20260905021503 52 220 1.0 5.0 0.00 0.19 0.13 99 998.4
20260905021003 52 209 1.0 5.0 0.00 0.19 0.13 99 998.5
20260905020713 52 205 1.0 6.0 0.00 0.19 0.13 99 998.4
20260905020214 52 207 2.0 6.0 0.00 0.19 0.13 99 998.2
20260905015503 52 203 2.0 5.0 0.00 0.19 0.13 99 998.2
20260905015214 52 205 2.0 5.0 0.00 0.19 0.13 99 998.2
20260905014713 52 208 2.0 5.0 0.00 0.19 0.13 99 998.2
20260905014003 52 205 2.0 6.0 0.00 0.19 0.13 99 998.2
20260905013504 52 204 2.0 6.0 0.00 0.19 0.13 99 998.1
20260905013003 52 211 1.0 5.0 0.00 0.19 0.13 99 998.2
20260905012503 52 216 1.0 4.0 0.01 0.19 0.13 99 998.1
20260905012213 52 215 1.0 3.0 0.02 0.19 0.13 99 998.1
20260905011503 52 209 2.0 3.0 0.07 0.19 0.13 99 998.1
20260905011003 53 208 1.0 3.0 0.08 0.19 0.13 99 997.9
20260905010503 53 199 1.0 3.0 0.10 0.19 0.13 99 998.0
20260905010003 53 191 1.0 3.0 0.12 0.19 0.13 99 998.0
20260905005714 53 210 0.0 2.0 0.12 0.19 0.13 99 997.9
20260905005213 53 226 0.0 3.0 0.12 0.19 0.13 99 998.2
20260905004714 53 207 1.0 3.0 0.12 0.19 0.13 99 998.2